Terug naar catalogus

STARLINK-32879

ActiefCommunicatieVLEO
NORAD 62957·PAYLOAD·🇺🇸 United States

Gelanceerd Feb 11, 2025 vanaf Vandenberg Space Force Base

Loading…

Volgende Passages (komende 24 uur)

TLE

VersSource: CelesTrak SupGP

Epoch: Sep 15, 2026, 02:27 UTC

1 62957C 25029K   26258.10256944 -.00022478  00000+0 -72289-3 0  2584
2 62957  53.1583  71.4154 0001224  85.1616 325.3158 15.31710410    15

Volg STARLINK-32879 in realtime met AllMySat

Download on the App Store